Theta_e
343 342 343 342 338 340 343 347 346 345 342 344 336 347 349 347 347 342 341 344 347 348 347 347 348 347 349 345 345 345 350 347 346 345 346 347 348 346 346 345 338 347 345
347 349 343 345 343 340 344 345 346 345 343 341 343 338 349 344 348 347 345 343 345 346 345 344 348 345 348 342 344 344 346 349 350 346 348 347 347 350 347 346 344 343 343
337 346 347 349 347 346 341 344 346 347 345 343 344 344 343 342 348 348 344 342 344 347 348 347 344 349 346 344 347 346 343 343 344 345 346 347 347 349 348 345 343 346 345
341 344 347 351 347 348 347 347 346 342 346 346 344 344 344 345 345 345 346 344 344 345 343 343 348 348 346 345 346 347 346 344 345 345 345 347 346 346 345 342 339 340 340
346 342 344 348 349 348 348 348 351 349 346 347 349 348 345 345 345 343 344 344 347 347 347 344 346 349 349 346 347 348 348 346 345 343 345 344 343 342 339 338 339 343 346
346 341 343 349 348 349 347 350 349 350 350 349 348 348 348 345 342 345 344 345 349 346 344 345 347 352 347 349 347 345 346 346 342 342 343 345 342 340 341 341 343 341 343
346 346 346 343 339 343 345 349 348 348 349 349 350 350 349 347 344 339 341 350 351 349 348 348 345 349 348 346 349 348 346 345 342 343 343 343 341 340 339 342 341 340 340
340 340 341 340 337 336 344 347 349 348 347 346 350 347 346 347 348 346 342 348 351 351 350 351 346 345 345 346 344 342 342 343 343 345 344 343 342 338 339 340 339 339 341
344 347 344 342 341 340 343 346 348 349 349 348 348 348 347 347 346 347 346 342 349 350 349 350 348 347 345 345 344 343 343 342 345 345 343 342 339 341 340 339 339 340 340
344 345 348 347 344 342 340 343 350 350 351 353 352 351 350 350 350 348 346 345 342 343 350 350 349 347 346 345 344 343 341 343 346 343 342 342 341 339 338 338 339 337 337
340 334 337 343 344 343 345 349 347 348 350 350 351 352 352 351 351 349 347 347 346 345 345 345 346 345 345 344 345 345 343 344 345 343 343 339 338 337 336 331 333 333 332
340 339 335 341 342 344 344 347 347 346 345 344 347 350 350 350 350 350 350 347 347 346 345 345 346 345 345 345 346 345 344 345 342 341 339 337 335 332 330 321 320 324 323
336 335 340 339 345 342 343 346 346 344 344 345 347 347 347 347 348 348 348 348 347 346 345 345 344 346 346 346 343 343 341 341 339 334 330 328 328 325 320 319 319 320 322
336 333 341 341 343 342 341 344 343 342 344 345 344 344 344 344 345 346 347 347 347 346 347 345 345 344 344 342 341 340 339 336 333 331 325 320 318 317 317 317 320 319 321
333 335 341 342 342 341 343 343 342 342 340 339 341 340 342 343 343 345 347 348 347 345 345 346 345 344 341 338 336 334 331 327 324 323 323 322 320 317 319 318 318 318 319
332 334 340 340 342 337 337 340 340 340 337 337 337 336 337 339 341 342 343 344 345 345 345 345 342 337 335 333 329 324 324 322 320 320 319 319 320 319 316 316 317 317 317
335 331 337 339 335 336 337 338 337 336 336 336 336 336 337 336 339 340 341 341 340 340 341 337 333 332 329 326 324 322 320 319 319 318 319 319 318 316 316 315 315 316 316
333 336 337 338 338 337 337 336 334 333 332 332 333 335 337 336 337 339 338 337 334 332 332 330 328 326 325 324 321 318 319 318 318 317 315 315 314 313 313 312 313 314 313
334 335 336 336 336 336 335 332 330 330 331 332 331 330 329 329 327 328 329 330 330 329 328 326 324 322 319 317 317 317 316 315 312 310 311 311 311 311 310 310 308 310 311
334 335 335 334 335 333 331 329 328 327 327 326 326 327 326 327 327 327 328 328 326 325 325 324 322 316 316 318 316 311 310 310 309 308 308 310 310 310 310 310 311 311 312
333 334 335 333 332 331 330 329 328 327 327 327 327 327 326 327 327 326 326 324 322 319 318 317 317 316 313 312 310 309 310 312 312 311 310 310 311 311 311 311 311 312 310
334 335 334 331 331 330 329 328 327 327 325 320 320 319 319 320 320 319 318 318 319 318 316 315 314 310 310 311 313 314 313 313 313 313 313 311 311 312 311 311 312 311 311
332 334 334 333 332 330 329 328 327 323 317 320 322 323 323 322 322 321 320 318 318 316 312 311 312 315 316 316 316 315 315 314 313 314 314 313 312 312 312 311 311 311 311
333 333 334 333 332 330 329 329 328 324 320 320 319 320 322 323 323 322 322 319 319 319 319 319 319 319 318 317 317 317 316 315 313 311 313 313 313 312 311 311 310 311 310
331 332 333 333 332 332 330 328 324 322 320 320 320 320 320 320 319 319 319 319 319 320 320 320 320 320 320 319 318 317 316 316 316 314 314 312 311 312 312 311 311 310 310
328 329 328 327 325 325 323 321 320 321 320 320 320 321 320 319 319 319 319 319 320 320 320 320 321 321 321 320 320 319 319 318 317 316 315 312 309 310 311 310 310 310 310
Wind_Speed
24 22 21 21 24 25 24 22 19 19 19 17 17 18 16 12 11 10 8 13 12 13 13 14 7 5 4 4 5 5 4 3 6 5 5 4 2 3 6 11 11 2 6
23 22 19 16 21 22 27 26 22 20 21 16 20 14 22 17 15 14 12 11 13 15 11 9 9 6 7 7 6 9 9 7 8 9 4 2 4 5 6 8 10 5 4
32 21 23 22 19 18 23 30 26 24 21 19 19 21 20 16 18 18 17 13 15 16 12 10 9 9 11 10 11 13 12 11 12 10 7 6 7 9 9 8 8 6 3
17 24 26 30 23 24 19 22 21 24 22 20 23 23 20 19 22 24 21 15 15 17 17 14 11 10 11 13 13 15 13 11 10 10 9 9 10 7 5 4 7 7 7
22 28 31 29 29 24 22 18 21 22 22 21 22 22 22 23 21 23 20 17 18 16 17 18 17 15 13 15 15 17 17 20 17 12 10 9 6 5 7 8 6 5 6
18 30 31 25 23 26 25 24 23 25 26 27 28 27 27 25 24 23 21 20 18 21 19 16 20 17 18 18 20 18 17 14 13 12 10 8 8 6 7 6 3 4 4
10 14 23 20 36 26 25 23 25 27 28 27 27 28 28 26 24 22 23 22 23 24 23 17 19 21 20 18 19 19 17 17 15 14 12 11 9 9 8 8 7 7 7
5 4 6 11 18 31 31 23 29 28 27 27 30 30 29 29 28 25 24 27 27 26 27 26 22 22 20 21 21 17 17 16 14 12 11 10 10 10 10 10 7 5 5
6 6 9 12 17 17 21 25 27 26 27 29 30 29 29 28 27 28 27 26 31 28 26 27 25 25 24 22 18 19 18 16 12 11 12 12 11 12 8 8 8 7 9
13 13 12 12 15 20 21 22 21 22 23 24 26 28 29 29 29 27 27 28 29 30 30 29 29 29 27 25 19 19 18 15 15 9 10 10 8 6 6 8 10 9 8
11 14 14 14 15 17 20 21 21 20 20 23 24 26 26 28 29 28 27 31 31 31 29 27 29 27 25 24 22 20 20 18 17 15 12 10 8 8 7 5 6 7 6
14 18 16 15 18 18 18 19 19 21 24 27 25 24 25 26 28 29 29 29 31 30 29 28 29 26 24 24 23 22 18 16 15 15 15 13 12 13 14 14 11 9 8
16 16 12 14 17 17 14 15 19 20 21 22 22 24 25 25 28 27 28 30 28 30 31 30 29 25 24 22 17 13 10 13 16 13 16 21 20 20 18 14 11 9 10
19 14 12 14 14 13 16 18 18 18 18 18 18 18 18 18 20 18 22 23 25 27 30 31 29 26 20 14 14 12 14 15 17 21 21 21 19 15 12 9 9 8 8
18 13 16 12 14 15 17 18 17 17 16 16 16 17 14 13 13 9 9 13 22 28 29 33 27 23 20 22 20 21 25 23 19 18 17 15 13 11 8 6 6 5 7
14 12 11 10 12 16 18 17 17 17 18 19 18 16 13 10 11 11 13 11 11 21 24 23 25 28 30 31 31 27 23 20 17 14 14 13 12 9 7 9 8 5 8
15 16 15 15 16 16 15 15 16 17 16 15 14 12 12 10 8 9 11 14 16 21 22 27 31 34 35 30 28 25 20 19 16 13 13 10 8 9 8 7 7 7 7
16 11 12 12 15 13 13 15 13 10 7 6 4 6 9 9 8 9 8 9 16 17 24 32 33 30 26 23 21 18 16 15 13 12 10 9 9 7 5 4 6 6 5
11 9 9 14 12 10 10 6 6 10 13 16 18 17 17 16 17 17 18 22 29 29 28 26 23 20 18 17 16 15 14 12 10 9 9 9 8 7 11 12 12 12 9
5 8 14 14 10 10 12 19 24 25 27 28 30 30 28 28 28 27 25 26 29 30 27 22 18 17 15 12 12 12 12 12 12 12 14 13 12 11 9 8 9 10 8
6 12 13 16 17 20 24 24 24 25 26 26 26 22 19 20 21 19 19 19 20 22 21 20 18 14 13 13 13 13 13 13 11 10 13 13 11 9 8 10 7 3 3
11 16 17 22 22 22 22 21 22 22 22 25 25 25 23 21 20 19 19 18 17 16 14 14 14 15 16 16 15 13 13 13 12 13 13 10 9 9 7 7 6 4 4
13 16 23 27 26 24 23 21 20 20 24 24 22 20 18 18 17 16 14 15 14 12 14 16 16 14 16 15 12 9 11 12 12 9 8 7 6 5 5 3 4 2 2
14 17 19 29 32 31 29 25 19 19 17 18 16 14 15 16 15 12 16 15 14 13 15 14 12 11 13 12 11 9 11 11 8 7 8 6 9 7 6 5 5 5 4
13 20 22 24 26 32 25 28 25 22 18 11 11 11 17 19 16 14 13 12 11 10 10 8 7 6 7 7 7 11 10 11 11 9 6 4 9 9 9 8 4 1 3
15 24 27 29 33 33 29 30 26 18 15 13 17 21 20 18 15 12 14 12 11 10 10 13 14 15 15 14 11 11 15 15 15 11 4 5 3 8 6 7 6 4 6
Wind_Direction
208 212 215 222 222 218 215 214 221 226 223 220 235 220 214 226 231 236 225 223 228 249 248 245 257 290 305 304 307 287 315 285 316 338 13 17 48 239 299 295 276 287 222
222 219 214 224 228 225 219 220 222 226 226 237 229 227 215 219 225 237 236 235 240 246 237 231 236 251 271 294 296 309 305 305 303 294 308 330 284 286 305 323 295 276 254
229 222 225 223 226 231 226 225 228 229 238 232 222 218 220 219 230 236 244 239 237 241 246 252 233 235 266 285 269 279 294 292 285 289 273 267 276 281 304 312 312 305 285
227 220 221 224 228 230 236 224 228 237 233 230 238 246 242 237 242 241 241 247 233 238 250 252 244 248 274 278 287 295 298 305 297 276 281 273 270 279 259 247 271 261 262
233 244 225 227 224 235 236 235 235 229 243 241 246 248 246 242 241 237 238 245 244 241 247 252 241 243 257 271 277 287 292 292 288 276 280 282 267 246 263 270 271 273 269
238 217 234 217 218 220 230 231 233 235 233 235 243 243 247 247 244 242 246 245 254 251 253 254 236 238 240 257 270 277 281 288 279 268 266 257 265 267 299 298 295 266 235
206 260 222 275 236 246 257 230 242 245 248 246 245 248 251 252 251 249 242 234 245 252 255 257 238 241 254 261 268 279 279 282 277 268 252 251 252 271 274 271 266 248 249
252 279 260 214 210 248 238 240 243 246 249 255 255 254 256 256 254 254 247 235 241 248 255 257 249 248 254 258 271 280 280 281 278 255 250 250 263 267 278 265 248 216 181
279 268 266 241 247 252 256 247 242 242 248 249 253 255 255 262 257 253 252 246 240 247 246 253 254 257 259 260 267 267 271 273 255 250 253 260 266 276 257 231 209 189 179
276 273 262 252 250 245 248 249 252 254 257 257 257 254 253 259 263 263 258 250 249 245 245 250 254 259 258 263 259 257 265 260 264 248 245 262 248 227 220 206 190 175 162
291 286 265 260 267 270 259 255 258 260 260 262 262 263 265 266 268 267 259 253 251 251 249 249 253 252 252 253 253 255 265 255 249 245 237 215 206 199 172 105 142 139 127
297 306 275 269 272 274 260 259 264 268 266 262 263 265 266 265 263 260 255 253 251 248 244 245 247 248 249 248 251 252 248 224 238 232 213 178 154 132 107 92 87 100 108
291 299 276 278 270 272 264 261 271 270 264 264 265 268 269 271 268 265 260 249 245 246 242 243 249 246 246 250 254 243 230 215 207 180 148 129 124 111 106 104 105 108 97
301 285 282 276 267 261 260 265 271 266 265 266 272 277 280 284 278 273 268 250 235 238 239 237 241 242 251 235 212 196 186 172 156 141 119 114 114 121 129 129 137 121 92
300 276 279 269 256 257 262 270 273 270 267 265 264 267 275 276 278 261 246 240 232 232 235 224 223 220 199 179 168 151 138 127 127 131 131 136 122 113 122 161 150 113 127
281 292 267 248 260 276 275 272 269 271 271 270 267 265 264 261 259 246 247 242 231 229 210 213 197 182 168 149 140 137 138 131 134 134 130 125 143 159 156 154 171 138 132
292 291 254 276 274 277 265 269 274 271 269 267 258 244 251 258 245 243 221 202 208 204 196 181 165 154 144 136 139 143 142 138 137 147 163 167 179 179 174 163 155 140 131
292 276 265 259 244 256 258 272 271 266 261 247 185 205 218 226 212 206 205 194 176 176 161 147 143 139 138 138 138 140 143 149 162 168 169 164 166 170 179 179 186 176 141
283 269 237 228 239 247 257 234 157 140 142 134 124 118 118 123 125 131 137 139 134 132 130 129 127 122 126 135 138 149 158 157 162 159 159 159 156 169 122 98 108 125 119
278 237 209 215 214 193 157 136 134 131 125 121 120 119 121 123 125 127 130 134 136 135 135 137 138 134 144 146 158 164 157 144 136 141 146 141 126 119 122 116 113 121 114
260 206 204 199 179 158 147 139 135 131 128 126 126 122 121 129 133 133 133 135 140 136 131 131 138 142 150 163 164 150 142 138 131 134 137 139 148 150 141 124 120 126 93
233 206 197 175 171 168 161 147 142 137 134 129 130 126 121 118 114 116 121 129 129 130 133 136 149 156 155 152 140 132 133 135 127 120 103 129 124 130 126 141 155 185 182
220 210 203 185 181 173 168 150 142 146 143 141 142 142 139 138 143 143 134 121 131 137 142 147 146 142 146 144 142 141 142 127 115 114 109 126 140 163 172 149 199 212 217
215 220 210 196 190 175 173 165 161 153 147 156 155 144 136 147 143 137 154 144 134 127 135 141 138 134 149 158 176 192 193 166 150 154 165 175 195 207 199 195 231 236 285
209 210 196 197 190 181 169 164 161 167 160 176 198 181 154 152 155 156 153 154 152 141 153 159 178 188 190 180 171 198 204 205 210 202 194 213 225 219 211 200 185 186 205
196 186 177 167 152 151 156 143 145 147 157 141 126 150 149 151 157 164 162 164 179 175 169 190 194 201 214 219 222 221 228 233 230 238 212 211 185 168 183 211 234 238 194